Montana Department of Transportation

Main Content

Accidents and Incidents Report

Hourly Weather Roundup

ASUS45 KTFX 231410

RWRMT 

MONTANA REGIONAL WEATHER ROUNDUP

NATIONAL WEATHER SERVICE GREAT FALLS MT

800 AM MDT SUN SEP 23 2018



NOTE: "FAIR" INDICATES FEW OR NO CLOUDS BELOW 12000 FEET WITH NO

SIGNIFICANT WEATHER AND/OR OBSTRUCTIONS TO VISIBILITY.



MTZ001.007-043-231500-

WEST OF THE DIVIDE

  

CITY           SKY/WX    TMP DP  RH WIND       PRES   REMARKS

KALISPELL      FOG       35  35 100 CALM      29.95R VSB 1/4          

MISSOULA       CLOUDY    52  45  77 CALM      29.97R                  

BUTTE          MOCLDY    47  37  68 S5        30.02R                  

MULLAN PASS    CLOUDY    38  34  85 VRB5      30.01R                  

ANACONDA         N/A     46  41  81 S3        30.00S                  

DEER LODGE       N/A     48  41  76 S3        30.00S                  

LIBBY            N/A     45  43  93 CALM      29.96R                  

PLAINS           N/A     42  38  86 CALM      29.98R                  

RONAN            N/A     48  41  76 E6        29.97S                  

--------------------------------



MTZ008-052.055-231500-

SOUTHWEST MONTANA

  

CITY           SKY/WX    TMP DP  RH WIND       PRES   REMARKS

BOZEMAN        MOCLDY    47  39  74 CALM      29.99S                  

DILLON         FAIR      44  38  79 CALM      29.97R                  

ENNIS          CLOUDY    46  34  61 SW3       30.04S                  

W YELLOWSTONE  FAIR      39  21  48 CALM      30.01R                  

THREE FORKS      N/A     48  40  74 CALM      29.97S                  

--------------------------------



MTZ009-010-012-014-046-048-049-054-231500-

EAST SLOPES AND CENTRAL MONTANA

  

CITY           SKY/WX    TMP DP  RH WIND       PRES   REMARKS

CUT BANK       FOG       31  31 100 NE8       29.91S VSB 1/4 WCI  23  

GREAT FALLS    FAIR      43  43 100 N3        29.93S                  

HELENA         CLOUDY    53  42  66 N10G18    29.95F                  

WHITE SULPHUR    N/A     46  41  81 NE8       29.99S                  

--------------------------------



MTZ011-013-016-021-045-047-050-051-231500-

NORTH CENTRAL MONTANA

  

CITY           SKY/WX    TMP DP  RH WIND       PRES   REMARKS

HAVRE          CLOUDY    45  44  97 E6        29.93R FOG              

LEWISTOWN      CLOUDY    44  41  89 CALM      29.96R                  

N BAR RANCH    FAIR      43  37  81 W5        29.97F                  

CHINOOK          N/A     43  43 100 E9        29.94R VSB 1/4          

--------------------------------



MTZ017.020-022.027-061-062-231500-

NORTHEAST MONTANA

  

CITY           SKY/WX    TMP DP  RH WIND       PRES   REMARKS

GLASGOW        CLOUDY    40  38  93 NE9       29.99R                  

GLENDIVE       CLOUDY    40  39  97 E9        29.96R FOG              

JORDAN           N/A     40  32  73 E6        29.96R                  

MALTA          CLOUDY    41  41 100 E12       29.93F FOG              

SIDNEY         CLOUDY    39  37  92 E10       29.99R                  

WOLF POINT     CLOUDY    39  38  96 E13       30.00R WCI  31          

POPLAR           N/A     37  36  93 E10       30.00R WCI  30          

SCOBEY           N/A     35  30  82 E8        29.97  WCI  28          

--------------------------------



MTZ028.42-056.058-231500-

SOUTHCENTRAL AND SOUTHEAST MONTANA

  

CITY           SKY/WX    TMP DP  RH WIND       PRES   REMARKS

BAKER          FOG       40  40 100 E15       29.92R VSB 1/2          

BILLINGS       CLOUDY    48  47  96 N6        29.94R                  

LIVINGSTON     FAIR      44  37  76 NW7       29.98R                  

MILES CITY     CLOUDY    42  42 100 NE12      29.92S FOG              

BIG TIMBER     CLEAR     48  36  61 W12       29.98S                  

EKALAKA          N/A     44  41  89 SE14      29.88                   

--------------------------------



REGIONAL REPORTS...DAKOTAS

  

CITY           SKY/WX    TMP DP  RH WIND       PRES   REMARKS

WILLISTON      CLOUDY    38  35  89 E13       30.01F WCI  30          

MINOT          CLOUDY    38  35  89 NE13      30.04F WCI  30          

DICKINSON      FOG       38  38 100 NE12      29.93S VSB 1/4 WCI  30  

BEACH          FOG       37  37 100 E15       29.96F VSB 1/4 WCI  28  

CROSBY         CLOUDY    34  34 100 E13       30.05F FOG     WCI  25  

TIOGA          CLOUDY    34  34 100 E14G21    30.03R FOG     WCI  24  

WATFORD CITY   FOG       37  37 100 E13       29.98F VSB 1/2 WCI  29  

BISMARCK       CLOUDY    42  41  96 E14       29.97F FOG              

GRAND FORKS    CLOUDY    43  41  93 NE12      30.09R                  

FARGO          FAIR      48  45  89 NE12      30.01S                  

BUFFALO SD       N/A     43  32  65 E17       29.87R                  

RAPID CITY     FAIR      52  46  80 N8        29.84R                  

--------------------------------



REGIONAL REPORTS...WYOMING/IDAHO/WASHINGTON

  

CITY           SKY/WX    TMP DP  RH WIND       PRES   REMARKS

GILLETTE       FAIR      60  28  29 N7        29.89R                  

SHERIDAN       FAIR      47  45  93 W3        29.92R                  

BUFFALO WY     FAIR      50  37  61 NW3       29.93R                  

CODY           FAIR      44  39  82 NW3       29.96S                  

YELLOWSTONE LA   N/A     34  24  67 CALM      30.10R                  

IDAHO FALLS    FAIR      52  32  46 SW12      29.98R                  

SALMON         CLOUDY    53  37  54 CALM      29.97R                  

BOISE          FAIR      56  44  64 W9        29.97R                  

SPOKANE        MOCLDY    47  40  76 SW10      29.99R                  

--------------------------------



REGIONAL REPORTS...ALBERTA

  

CITY           SKY/WX    TMP DP  RH WIND       PRES   REMARKS

CALGARY        DRIZZLE   34  34 100 S6        29.90F FOG     WCI  29  

CARDSTON         N/A     30  30 100 NW3         N/A                   

FORT MCMURRAY  LGT SNOW  32  28  86 SE8       29.99F WCI  25          

HIGH LEVEL     PTCLDY    28  27  93 S7        29.79F WCI  21          

LETHBRIDGE     CLOUDY    39  37  93 NE5       29.90S                  

LLOYDMINSTER   FRZ DRZL  32  30  93 SE10      30.00F WCI  24          

MEDICINE HAT   CLOUDY    39  39 100 N3        29.92F FOG              

MILK RIVER       N/A     37  36  93 S10         N/A  WCI  30          

PEACE RIVER    PTCLDY    27  25  93 S2        29.84F                  

PINCHER CREEK  FOG       36  36 100 VRB2      29.89S VSB 1/8          

WATERTON GATE    N/A     48  37  66 W12G21      N/A                   

--------------------------------



REGIONAL REPORTS...SASKATCHEWAN

  

CITY           SKY/WX    TMP DP  RH WIND       PRES   REMARKS

CORONACH         N/A     34  34 100 E8          N/A  WCI  27          

CYPRESS HILLS    N/A     37  36  93 SE5         N/A                   

ESTEVAN        CLOUDY    34  32  93 E15G24    30.05  WCI  24          

MOOSE JAW        N/A     34  32  93 SE16        N/A  WCI  23          

PRINCE ALBERT  LGT SNOW  30  27  86 E9        30.16F WCI  22          

REGINA         CLOUDY    32  32 100 E14G21    30.06F FOG     WCI  22  

ROCKGLEN         N/A     34  32  93 E3          N/A                   

SASKATOON      LGT SNOW  32  30  93 SE14      30.09F FOG     WCI  22  

SWIFT CURRENT  LGT RAIN  34  34 100 SE10      29.98R VSB 3/8 WCI  26  

VAL MARIE        N/A     39  36  87 SE7         N/A                   

--------------------------------